[[{"header":{"parameterUnit":"m.s-1","parameterCategory":1,"la1":30.2992,"la2":30.254,"lo1":-89.0895,"lo2":-89.0443,"dy":0.0025,"dx":0.0025,"nx":19,"ny":19,"refTime":"2026-04-29T09:00:00:Z","depth":0,"parameterNumber":2,"parameterNumberName":"U-component_of_WINDS"},"data":[0,0,0,1.1956,1.1958,1.204,1.204,1.2155,1.2156,0,0,0,0,0,0,0,0,0,0,0,1.1936,1.1937,1.1956,1.1958,1.2039,1.204,1.2155,1.2156,0,0,0,0,0,0,0,0,0,0,0,1.1936,1.1937,1.1938,1.1959,1.2039,1.204,1.2154,1.209,0,0,0,0,0,0,0,0,0,0,1.2009,1.1994,1.1937,1.1938,1.1959,1.2039,1.204,1.2087,1.2094,1.2122,0,1.2145,0,1.2152,1.2164,1.2165,0,0,0,1.1957,1.1988,1.2006,1.1938,1.196,1.2039,1.2002,1.2091,1.2099,1.2132,1.2147,1.2151,1.2154,1.2165,1.2165,1.2324,1.2325,0,0,1.1952,1.1954,1.2,1.2011,1.1996,1.2,1.2005,1.2095,1.2113,1.2147,1.2153,1.2156,1.2166,1.2167,1.2324,1.2325,0,0,0,1.194,1.1951,1.1966,1.2007,1.202,1.2002,1.2008,1.2109,1.2114,1.2154,1.2157,1.2166,1.2168,1.2323,1.2324,1.2364,0,0,0,1.1938,1.1944,1.1964,1.1966,1.2019,1.2065,1.202,1.2108,1.2118,1.2157,1.2166,1.2169,1.2322,1.2323,1.2361,1.2384,0,0,0,1.193,1.1943,1.1956,1.1966,1.2001,1.2064,1.2073,1.211,1.212,1.2165,1.2169,1.2321,1.2323,1.2358,1.2379,1.2425,0,0,0,1.1923,1.1993,1.1956,1.2036,1.2,1.2087,1.2073,1.2139,1.2182,1.2167,1.2322,1.2324,1.2358,1.2377,1.2422,1.2463,1.248,0,0,1.2013,1.2004,1.2051,1.202,1.2113,1.2075,1.2175,1.2215,1.222,1.229,1.2294,1.2362,1.2379,1.2424,1.2577,1.259,0,0,0,1.208,1.2114,1.2138,1.2177,1.2207,1.2235,1.2258,1.2273,1.2332,1.2255,1.2391,1.2401,1.2428,1.2448,1.2459,1.2482,1.2333,1.2333,1.2333,1.2211,1.2209,1.2287,1.2295,1.2334,1.2356,1.2388,1.2412,1.2403,1.2435,1.2455,1.2548,1.2571,1.2579,1.2603,1.2478,1.2478,1.2478,1.2478,1.2342,1.2389,1.2371,1.2439,1.2439,1.2497,1.2522,1.2513,1.2569,1.2533,1.2556,1.2516,1.2594,1.2615,1.2481,1.2481,1.248,1.248,1.248,1.2427,1.2449,1.2463,1.2518,1.2562,1.2569,1.2622,1.2621,1.2621,1.2644,1.2665,1.2664,1.2663,1.2654,1.2654,1.2654,1.2655,1.2655,1.2655,1.251,1.2524,1.2567,1.2603,1.2627,1.2659,1.2681,1.2706,1.2733,1.2728,1.2729,1.2716,1.2601,1.2572,1.266,1.2659,1.2659,1.2658,1.2658,1.2642,1.2611,1.2678,1.2701,1.2743,1.2785,1.2782,1.2832,1.2853,1.2879,1.2861,1.2777,1.2769,1.276,1.2736,1.2861,1.2861,1.2861,1.2861,1.2714,1.2708,1.2775,1.2812,1.285,1.2853,1.293,1.2948,1.2963,1.2976,1.2957,1.2926,1.2916,1.2914,1.2902,1.2879,1.3038,1.3038,1.3038,1.2795,1.2793,1.2857,1.2867,1.2899,1.2927,1.2999,1.3045,1.3056,1.3045,1.2986,1.2978,1.2927,1.291,1.2898,1.2878,1.2837,0,0]},{"header":{"parameterUnit":"m.s-1","parameterCategory":1,"la1":30.2992,"la2":30.254,"lo1":-89.0895,"lo2":-89.0443,"dy":0.0025,"dx":0.0025,"nx":19,"ny":19,"refTime":"2026-04-29T09:00:00:Z","depth":0,"parameterNumber":3,"parameterNumberName":"V-component_of_WINDS"},"data":[0,0,0,0.8102,0.8107,0.8321,0.8322,0.8606,0.8609,0,0,0,0,0,0,0,0,0,0,0,0.8047,0.8049,0.8102,0.8107,0.8321,0.8322,0.8606,0.8609,0,0,0,0,0,0,0,0,0,0,0,0.8046,0.8049,0.8052,0.8108,0.8321,0.8322,0.8605,0.844,0,0,0,0,0,0,0,0,0,0,0.823,0.8188,0.8048,0.8052,0.8109,0.832,0.8322,0.8432,0.845,0.8515,0,0.8576,0,0.8597,0.8629,0.863,0,0,0,0.8101,0.8173,0.8223,0.8052,0.8111,0.832,0.8223,0.8442,0.8463,0.8539,0.858,0.859,0.8602,0.8631,0.8632,0.9024,0.9026,0,0,0.8089,0.8091,0.8208,0.8237,0.8206,0.8216,0.8229,0.8454,0.8498,0.8581,0.8596,0.8606,0.8633,0.8635,0.9022,0.9025,0,0,0,0.806,0.8083,0.8126,0.8225,0.8263,0.8222,0.8238,0.8488,0.8502,0.8599,0.861,0.8635,0.8638,0.902,0.9023,0.9124,0,0,0,0.8052,0.8065,0.8122,0.8125,0.8259,0.8379,0.8267,0.8487,0.8512,0.8608,0.8635,0.8641,0.9018,0.9022,0.9116,0.9171,0,0,0,0.803,0.8062,0.8096,0.8124,0.8216,0.8375,0.8402,0.8492,0.8519,0.863,0.8642,0.9016,0.9021,0.911,0.916,0.9269,0,0,0,0.8008,0.8188,0.8098,0.8302,0.8214,0.8437,0.84,0.8567,0.8675,0.8636,0.9018,0.9023,0.9107,0.9153,0.9262,0.9358,0.94,0,0,0.8235,0.8215,0.8335,0.8261,0.8499,0.8405,0.8658,0.8757,0.8769,0.8938,0.8947,0.9119,0.9159,0.9268,0.9642,0.9674,0,0,0,0.8407,0.8492,0.8555,0.8657,0.8736,0.8806,0.8867,0.8902,0.9045,0.8856,0.9191,0.9215,0.9279,0.9324,0.9352,0.9404,0.9046,0.9045,0.9045,0.8728,0.873,0.8926,0.8952,0.9051,0.9109,0.9188,0.9246,0.9223,0.9301,0.935,0.9576,0.963,0.9651,0.9705,0.9406,0.9406,0.9406,0.9407,0.9056,0.9174,0.9134,0.9309,0.9309,0.9457,0.9518,0.9495,0.963,0.9541,0.9598,0.9495,0.9687,0.9734,0.9414,0.9413,0.9412,0.9411,0.9411,0.9261,0.9317,0.9357,0.95,0.961,0.9632,0.9761,0.9759,0.9758,0.9814,0.986,0.9859,0.9852,0.9837,0.9838,0.9839,0.9839,0.984,0.984,0.9456,0.9498,0.9607,0.9703,0.9764,0.9845,0.9903,0.9963,1.0029,1.0017,1.0017,0.9981,0.9708,0.9635,0.9852,0.985,0.9849,0.9848,0.9847,0.9778,0.9704,0.9873,0.9934,1.0043,1.0148,1.0144,1.0266,1.0316,1.0379,1.0332,1.0132,1.0111,1.0089,1.0028,1.0334,1.0334,1.0334,1.0334,0.9947,0.9936,1.0104,1.0202,1.0298,1.0309,1.0495,1.054,1.0576,1.0606,1.0562,1.0484,1.0462,1.0454,1.0424,1.0367,1.0752,1.0753,1.0753,1.0141,1.0139,1.0298,1.0331,1.0415,1.0486,1.0659,1.0771,1.0797,1.077,1.0627,1.061,1.0484,1.0444,1.041,1.0363,1.026,0,0]}]]